• In United Kingdom
  • List of Countries
  • For 7 days
  • Water Temperature
  • Satellite Maps
  • Weather Map
  • Weather Widgets
  • user-avatar
    Login

    Hourly Weather Asadabad

    Today, 20 February, Tuesday

    Time Temperature Precipitation Wind Pressure Humidity
    00:00 +10°C° 0 mm 2 mps 657 mmHg 42%
    01:00 +10°C° 0 mm 2 mps 657 mmHg 42%
    02:00 +10°C° 0 mm 2 mps 657 mmHg 42%
    03:00 +10°C° 0 mm 2 mps 657 mmHg 43%
    04:00 +9°C° 0 mm 2 mps 657 mmHg 43%
    05:00 +9°C° 0 mm 2 mps 657 mmHg 44%
    06:00 +10°C° 0 mm 2 mps 657 mmHg 44%
    07:00 +10°C° 0 mm 2 mps 657 mmHg 44%
    08:00 +12°C° 0 mm 2 mps 658 mmHg 44%
    09:00 +13°C° 0 mm 2 mps 658 mmHg 41%
    10:00 +15°C° 0 mm 2 mps 659 mmHg 37%
    11:00 +16°C° 0 mm 1 mps 659 mmHg 34%
    12:00 +18°C° 0.1 mm 1 mps 659 mmHg 34%
    13:00 +18°C° 0.1 mm 1 mps 659 mmHg 34%
    14:00 +18°C° 0.1 mm 1 mps 658 mmHg 34%
    15:00 +16°C° 0.2 mm 1 mps 658 mmHg 37%
    16:00 +16°C° 0.2 mm 1 mps 658 mmHg 40%
    17:00 +15°C° 0.2 mm 1 mps 658 mmHg 44%
    18:00 +14°C° 0 mm 1 mps 658 mmHg 47%
    19:00 +13°C° 0 mm 1 mps 658 mmHg 50%
    20:00 +12°C° 0 mm 1 mps 657 mmHg 54%
    21:00 +12°C° 0.1 mm 2 mps 657 mmHg 54%
    22:00 +12°C° 0.1 mm 2 mps 658 mmHg 54%
    23:00 +12°C° 0.1 mm 2 mps 658 mmHg 54%

    Tomorrow, 21 February, Wednesday

    Time Temperature Precipitation Wind Pressure Humidity
    00:00 +10°C° 0.2 mm 2 mps 657 mmHg 57%
    01:00 +11°C° 0.2 mm 1 mps 657 mmHg 60%
    02:00 +11°C° 0.2 mm 1 mps 657 mmHg 63%
    03:00 +10°C° 0 mm 1 mps 657 mmHg 63%
    04:00 +9°C° 0 mm 1 mps 656 mmHg 64%
    05:00 +9°C° 0 mm 1 mps 656 mmHg 64%
    06:00 +8°C° 0 mm 2 mps 656 mmHg 62%
    07:00 +9°C° 0 mm 2 mps 657 mmHg 60%
    08:00 +10°C° 0 mm 2 mps 658 mmHg 58%
    09:00 +12°C° 0 mm 2 mps 658 mmHg 54%
    10:00 +13°C° 0 mm 1 mps 658 mmHg 50%
    11:00 +14°C° 0 mm 1 mps 658 mmHg 47%
    12:00 +15°C° 0 mm 1 mps 658 mmHg 46%
    13:00 +16°C° 0 mm 2 mps 658 mmHg 46%
    14:00 +16°C° 0 mm 2 mps 657 mmHg 45%
    15:00 +16°C° 0.1 mm 2 mps 657 mmHg 46%
    16:00 +16°C° 0.1 mm 1 mps 657 mmHg 46%
    17:00 +15°C° 0.1 mm 1 mps 657 mmHg 47%
    18:00 +14°C° 0 mm 1 mps 657 mmHg 50%
    19:00 +13°C° 0 mm 2 mps 657 mmHg 53%
    20:00 +12°C° 0 mm 2 mps 657 mmHg 56%
    21:00 +10°C° 0 mm 2 mps 657 mmHg 53%
    22:00 +10°C° 0 mm 2 mps 657 mmHg 51%
    23:00 +9°C° 0 mm 2 mps 657 mmHg 49%

    Day after tomorrow, 22 February, Thursday

    Time Temperature Precipitation Wind Pressure Humidity
    00:00 +9°C° 0 mm 3 mps 657 mmHg 47%
    01:00 +9°C° 0 mm 3 mps 657 mmHg 45%
    02:00 +8°C° 0 mm 3 mps 657 mmHg 43%
    03:00 +8°C° 0 mm 3 mps 657 mmHg 42%
    04:00 +8°C° 0 mm 3 mps 656 mmHg 40%
    05:00 +7°C° 0 mm 3 mps 656 mmHg 39%
    06:00 +8°C° 0 mm 3 mps 656 mmHg 37%
    07:00 +8°C° 0 mm 3 mps 656 mmHg 35%
    08:00 +9°C° 0 mm 3 mps 656 mmHg 34%
    09:00 +12°C° 0 mm 2 mps 657 mmHg 31%
    10:00 +14°C° 0 mm 2 mps 657 mmHg 28%
    11:00 +16°C° 0 mm 1 mps 657 mmHg 25%
    12:00 +16°C° 0 mm 1 mps 657 mmHg 26%
    13:00 +17°C° 0 mm 2 mps 656 mmHg 26%
    14:00 +17°C° 0 mm 2 mps 656 mmHg 27%
    15:00 +17°C° 0 mm 2 mps 656 mmHg 29%
    16:00 +18°C° 0 mm 1 mps 656 mmHg 30%
    17:00 +16°C° 0 mm 1 mps 656 mmHg 32%
    18:00 +15°C° 0 mm 2 mps 656 mmHg 34%
    19:00 +13°C° 0 mm 2 mps 657 mmHg 37%
    20:00 +12°C° 0 mm 2 mps 657 mmHg 39%
    21:00 +10°C° 0 mm 2 mps 657 mmHg 39%
    22:00 +10°C° 0 mm 2 mps 657 mmHg 39%
    23:00 +10°C° 0 mm 3 mps 657 mmHg 38%

    23 February, Friday

    Time Temperature Precipitation Wind Pressure Humidity
    00:00 +10°C° 0 mm 3 mps 657 mmHg 38%
    01:00 +9°C° 0 mm 3 mps 657 mmHg 38%
    02:00 +9°C° 0 mm 3 mps 657 mmHg 37%
    03:00 +9°C° 0 mm 3 mps 656 mmHg 37%
    04:00 +9°C° 0 mm 3 mps 656 mmHg 37%
    05:00 +8°C° 0 mm 3 mps 655 mmHg 37%
    06:00 +9°C° 0 mm 2 mps 656 mmHg 37%
    07:00 +10°C° 0 mm 2 mps 657 mmHg 36%
    08:00 +10°C° 0 mm 2 mps 657 mmHg 36%
    09:00 +13°C° 0 mm 2 mps 658 mmHg 33%
    10:00 +14°C° 0 mm 2 mps 658 mmHg 30%
    11:00 +16°C° 0 mm 1 mps 659 mmHg 28%
    12:00 +17°C° 0 mm 2 mps 658 mmHg 28%
    13:00 +17°C° 0 mm 2 mps 658 mmHg 28%
    14:00 +18°C° 0 mm 2 mps 657 mmHg 28%
    15:00 +17°C° 0 mm 2 mps 657 mmHg 29%
    16:00 +17°C° 0 mm 2 mps 657 mmHg 30%
    17:00 +16°C° 0 mm 2 mps 657 mmHg 31%
    18:00 +15°C° 0 mm 2 mps 657 mmHg 34%
    19:00 +14°C° 0 mm 2 mps 657 mmHg 37%
    20:00 +13°C° 0 mm 1 mps 658 mmHg 39%
    21:00 +13°C° 0 mm 2 mps 658 mmHg 40%
    22:00 +13°C° 0 mm 2 mps 658 mmHg 41%
    23:00 +12°C° 0 mm 2 mps 658 mmHg 41%

    24 February, Saturday

    Time Temperature Precipitation Wind Pressure Humidity
    00:00 +12°C° 0.1 mm 2 mps 658 mmHg 44%
    01:00 +12°C° 0.1 mm 2 mps 658 mmHg 47%
    02:00 +10°C° 0.1 mm 2 mps 657 mmHg 50%
    03:00 +10°C° 0.5 mm 2 mps 657 mmHg 56%
    04:00 +9°C° 0.5 mm 2 mps 657 mmHg 62%
    05:00 +9°C° 0.5 mm 2 mps 657 mmHg 67%
    06:00 +8°C° 0.8 mm 2 mps 657 mmHg 71%
    07:00 +8°C° 0.8 mm 2 mps 658 mmHg 74%
    08:00 +8°C° 0.8 mm 2 mps 658 mmHg 77%
    09:00 +8°C° 0.7 mm 2 mps 658 mmHg 76%
    10:00 +9°C° 0.7 mm 2 mps 658 mmHg 76%
    11:00 +10°C° 0.7 mm 1 mps 658 mmHg 75%
    12:00 +10°C° 0.3 mm 2 mps 658 mmHg 74%
    13:00 +10°C° 0.3 mm 2 mps 658 mmHg 73%
    14:00 +12°C° 0.3 mm 2 mps 658 mmHg 71%
    15:00 +10°C° 0.8 mm 2 mps 657 mmHg 75%
    16:00 +10°C° 0.8 mm 1 mps 657 mmHg 78%
    17:00 +10°C° 0.8 mm 1 mps 657 mmHg 81%
    18:00 +10°C° 0.3 mm 1 mps 658 mmHg 82%
    19:00 +9°C° 0.3 mm 1 mps 658 mmHg 84%
    20:00 +9°C° 0.3 mm 1 mps 659 mmHg 85%
    21:00 +9°C° 0 mm 1 mps 659 mmHg 83%
    22:00 +9°C° 0 mm 1 mps 659 mmHg 82%
    23:00 +9°C° 0 mm 1 mps 659 mmHg 80%

    25 February, Sunday

    Time Temperature Precipitation Wind Pressure Humidity
    00:00 +9°C° 0 mm 1 mps 659 mmHg 78%
    01:00 +7°C° 0 mm 2 mps 659 mmHg 76%
    02:00 +7°C° 0 mm 2 mps 659 mmHg 74%
    03:00 +7°C° 0 mm 2 mps 659 mmHg 72%
    04:00 +7°C° 0 mm 2 mps 659 mmHg 70%
    05:00 +8°C° 0 mm 2 mps 659 mmHg 68%
    06:00 +8°C° 0.1 mm 2 mps 659 mmHg 67%
    07:00 +8°C° 0.1 mm 2 mps 660 mmHg 67%
    08:00 +9°C° 0.1 mm 2 mps 660 mmHg 67%
    09:00 +10°C° 0.1 mm 2 mps 661 mmHg 63%
    10:00 +12°C° 0.1 mm 2 mps 661 mmHg 60%
    11:00 +14°C° 0.1 mm 2 mps 661 mmHg 57%
    12:00 +14°C° 0 mm 2 mps 661 mmHg 55%
    13:00 +15°C° 0 mm 2 mps 661 mmHg 53%
    14:00 +16°C° 0 mm 2 mps 661 mmHg 51%
    15:00 +16°C° 0 mm 1 mps 660 mmHg 52%
    16:00 +16°C° 0 mm 1 mps 660 mmHg 52%
    17:00 +15°C° 0 mm 1 mps 660 mmHg 53%
    18:00 +14°C° 0 mm 1 mps 660 mmHg 57%
    19:00 +13°C° 0 mm 2 mps 660 mmHg 60%
    20:00 +12°C° 0 mm 2 mps 661 mmHg 63%
    21:00 +12°C° 0 mm 2 mps 660 mmHg 61%
    22:00 +12°C° 0 mm 2 mps 660 mmHg 60%
    23:00 +10°C° 0 mm 2 mps 660 mmHg 59%
    Show more